This demonstration page uses our WeatherBlox Daily Observations layout. Learn more.

Left ArrowRight Arrow

44.8408, -93.29828

Hourly Observations for March 30, 2017

Temp ( °F °C ) Dew Point ( °F °C ) Humidity (%) Winds ( mph kmh ) Pressure ( in mb ) Visibility ( mi km ) Precip ( " mm )
12:53 am 00:53 Cloudy 42 5.6 36 2.2 79 79 E 12 19 30.08 1019 10 16 0.00 0.03
1:53 am 01:53 Cloudy with Light Rain 41 5 36 2.2 82 82 E 15 24 30.05 1018 7 11 0.01 0.25
2:53 am 02:53 Cloudy 40 4.4 36 2.2 86 86 ENE 10 17 30.03 1017 10 16 0.00 0.03
3:53 am 03:53 Cloudy 40 4.4 36 2.2 86 86 ENE 12 19 30.01 1016 10 16 0.00 0.03
4:53 am 04:53 Cloudy with Light Rain 39 3.9 36 2.2 89 89 ENE 10 17 29.98 1015 5 8 0.01 0.25
5:06 am 05:06 Cloudy with Mist and Fog 39 4 36 2 87 87 ENE 10 17 30.00 1016 4 6 0.00 0.00
5:53 am 05:53 Cloudy 39 3.9 35 1.7 86 86 NE 9 15 29.96 1015 10 16 0.00 0.03
6:33 am 06:33 Cloudy 39 4 36 2 87 87 ENE 12 19 30.00 1016 10 16 0.00 0.00
6:53 am 06:53 Cloudy 39 3.9 35 1.7 86 86 ENE 10 17 29.96 1015 10 16 0.00 0.00
7:04 am 07:04 Cloudy 39 4 36 2 87 87 ENE 14 22 30.00 1016 10 16 0.00 0.00
7:53 am 07:53 Cloudy 39 3.9 34 1.1 82 82 ENE 14 22 29.95 1014 10 16 0.00 0.00
8:53 am 08:53 Cloudy 39 3.9 34 1.1 82 82 ENE 12 19 29.93 1014 10 16 0.00 0.00
9:13 am 09:13 Cloudy 39 3.9 34 1.1 82 82 ENE 14 22 29.97 1015 10 16 0.00 0.00
9:53 am 09:53 Cloudy 40 4.4 34 1.1 79 79 ENE 14 22 29.93 1013 10 16 0.00 0.00
10:53 am 10:53 Cloudy 41 5 33 0.6 73 73 ENE 15 24 29.91 1013 10 16 0.00 0.00
11:53 am 11:53 Cloudy 43 6.1 34 1.1 71 71 ENE 15 24 29.88 1012 10 16 0.00 0.00
12:53 pm 12:53 Cloudy 45 7.2 34 1.1 66 66 ENE 17 28 29.85 1011 10 16 0.00 0.00
1:53 pm 13:53 Cloudy 45 7.2 34 1.1 66 66 ENE 16 26 29.85 1011 10 16 0.00 0.00
2:53 pm 14:53 Cloudy 46 7.8 34 1.1 63 63 E 14 22 29.85 1011 10 16 0.00 0.00
3:41 pm 15:41 Cloudy 46 7.8 34 1.1 63 63 ENE 14 22 29.85 1011 10 16 0.00 0.00
3:53 pm 15:53 Cloudy 47 8.3 34 1.1 61 61 E 13 20 29.83 1010 10 16 0.00 0.00
4:53 pm 16:53 Cloudy 47 8.3 34 1.1 61 61 ENE 12 19 29.83 1010 10 16 0.00 0.00
5:53 pm 17:53 Cloudy 48 8.9 33 0.6 56 56 ENE 14 22 29.82 1010 10 16 0.00 0.00
6:53 pm 18:53 Cloudy 48 8.9 33 0.6 56 56 ENE 13 20 29.83 1010 10 16 0.00 0.00
7:53 pm 19:53 Cloudy 48 8.9 33 0.6 56 56 NE 10 17 29.83 1010 10 16 0.00 0.00
8:53 pm 20:53 Mostly Cloudy 47 8.3 33 0.6 59 59 NNE 9 15 29.84 1011 10 16 0.00 0.00
9:53 pm 21:53 Cloudy 47 8.3 33 0.6 59 59 NE 6 9 29.87 1011 10 16 0.00 0.00
10:53 pm 22:53 Cloudy 48 8.9 32 0 54 54 NE 9 15 29.88 1012 10 16 0.00 0.00
11:53 pm 23:53 Cloudy 45 7.2 31 -0.6 58 58 NNE 12 19 29.89 1012 10 16 0.00 0.00

Powered by AerisWeather